Theta_e
323 322 321 320 320 321 322 323 322 322 322 321 322 322 322 323 324 324 324 324 325 325 325 325 325 325 326 327 328 328 328 328 328 328 328 328 327 326 326 326 326 326
323 323 323 321 321 322 322 321 321 321 321 321 322 321 321 322 323 323 323 324 325 325 326 326 326 326 327 327 328 327 327 327 327 328 327 326 327 327 326 326 326 327
322 321 320 319 319 319 320 321 321 321 321 321 320 320 322 323 323 324 324 324 325 326 326 327 327 327 327 327 328 327 327 326 326 327 327 326 327 326 326 327 326 326
321 320 319 319 320 320 320 321 320 320 320 321 321 322 323 324 324 324 324 325 325 325 326 326 326 327 327 327 327 327 327 327 327 327 327 327 327 327 327 327 326 326
318 319 319 320 320 320 319 319 320 321 321 322 322 324 324 324 324 324 324 325 325 325 326 326 326 326 327 327 327 326 326 326 327 327 326 326 327 327 327 327 326 326
319 320 320 319 318 318 318 318 318 319 320 320 321 323 323 324 324 324 324 324 325 325 326 326 326 326 327 326 326 326 326 326 326 326 325 325 326 327 327 327 326 325
317 318 318 317 316 317 316 316 316 316 317 319 321 322 322 322 322 321 320 321 321 322 323 324 325 325 326 326 326 326 326 326 326 326 325 325 325 325 327 327 326 326
316 316 316 315 315 314 314 314 314 314 316 319 319 321 320 319 318 317 316 317 317 317 318 319 321 323 325 326 326 326 326 326 326 326 325 325 326 325 326 326 326 325
314 314 314 313 312 312 311 312 312 314 317 317 317 317 318 318 316 314 315 315 314 315 315 316 316 318 322 325 326 326 325 326 326 326 325 325 325 325 326 326 325 325
313 313 312 312 311 310 310 312 313 313 314 313 313 313 313 313 313 313 313 313 313 313 313 313 314 315 317 320 323 324 325 325 325 326 326 325 325 325 325 325 324 324
311 311 310 309 309 309 311 311 311 310 310 310 310 310 310 310 310 311 311 311 311 311 311 311 312 313 313 315 317 321 323 324 325 325 325 324 324 324 325 325 324 324
310 309 308 308 310 310 310 310 310 309 309 309 309 308 308 308 308 308 309 309 310 310 310 310 311 311 312 312 313 316 320 323 323 323 324 324 323 324 325 325 325 324
310 309 309 309 310 310 310 309 309 308 308 307 307 307 306 306 306 307 308 308 309 309 308 308 308 308 308 309 311 313 317 321 322 322 323 323 323 323 324 324 324 324
310 310 310 310 310 310 309 308 308 307 307 306 306 305 305 305 305 306 307 308 307 306 306 306 305 304 304 306 310 314 319 318 318 318 320 321 322 323 323 322 323 323
311 311 311 310 309 308 307 307 306 306 305 305 305 304 305 305 305 306 306 305 304 304 304 304 303 303 303 303 308 313 313 312 312 312 313 315 317 319 320 321 320 320
311 310 309 308 307 306 305 305 305 305 304 303 303 303 303 304 304 305 305 303 302 302 303 302 301 302 302 300 301 308 309 308 308 308 309 310 311 312 315 317 318 317
310 309 308 306 306 305 305 304 304 303 303 303 302 302 302 303 303 303 303 303 302 301 300 300 300 300 297 295 296 299 306 306 305 306 306 307 307 308 309 312 315 315
309 307 306 305 305 304 304 304 303 302 302 301 301 301 301 302 301 301 302 302 302 301 300 299 299 298 295 296 296 296 300 305 304 304 304 304 305 306 307 309 311 312
308 306 305 305 304 304 304 303 302 301 301 300 300 301 300 300 299 299 300 301 301 300 299 299 298 295 295 296 296 296 297 302 303 303 303 303 303 304 305 305 307 308
307 306 305 305 304 303 303 302 301 300 300 300 300 300 299 299 299 298 299 299 299 299 298 298 297 295 294 295 296 296 296 299 303 302 302 301 301 302 303 304 305 306
306 305 304 303 303 302 301 300 300 300 300 300 299 299 298 298 298 297 298 298 298 298 297 296 296 293 293 294 295 296 297 299 303 302 301 300 300 300 301 302 303 304
304 303 303 302 302 301 300 299 299 299 299 299 299 299 299 298 298 298 297 297 297 297 296 295 295 292 292 293 294 295 298 303 302 301 300 300 300 300 299 300 301 303
304 302 302 301 301 300 299 298 298 298 299 300 298 298 298 297 297 297 297 296 296 296 295 294 295 293 292 292 293 294 299 302 302 301 300 299 299 299 299 299 300 301
303 302 301 300 299 298 298 298 298 298 298 299 298 297 297 297 297 297 296 297 296 295 295 294 294 294 292 292 293 294 298 301 301 301 299 299 299 299 299 298 299 300
302 301 300 299 298 297 297 297 297 297 298 298 298 298 297 297 297 296 296 296 296 296 297 294 294 294 292 292 292 293 297 299 299 299 298 298 298 297 298 297 297 298
301 300 299 298 297 296 296 296 296 296 296 296 296 296 296 296 296 295 295 295 296 295 295 295 294 293 293 292 292 293 294 298 298 297 296 296 297 297 296 296 296 296
Wind_Speed
5 5 6 5 4 4 5 5 5 5 5 4 5 5 6 6 6 7 7 6 6 6 6 7 7 7 6 7 7 7 8 9 8 6 8 8 8 9 10 10 9 8
6 5 3 3 5 4 4 5 5 4 4 5 5 5 5 6 7 6 7 7 7 7 7 7 6 7 7 7 8 8 8 7 8 7 9 11 9 9 9 9 8 8
5 4 5 6 5 5 6 5 4 4 4 5 4 4 5 5 6 6 6 6 6 6 6 6 7 6 7 8 8 8 8 8 8 7 8 9 8 7 7 8 7 8
5 6 6 6 5 6 5 5 5 5 6 6 6 6 5 5 5 6 6 7 6 7 6 6 6 6 7 8 8 8 7 7 7 7 8 7 7 7 7 7 7 8
5 6 6 6 6 5 5 6 6 6 6 5 5 6 6 6 6 6 6 6 7 7 7 7 6 6 7 7 7 8 8 7 7 7 7 7 5 6 6 6 7 8
7 7 8 7 6 6 7 7 6 5 6 6 7 6 6 6 6 7 7 8 7 7 7 7 7 6 7 8 8 7 7 7 6 7 7 7 6 6 6 7 8 9
8 8 7 6 7 8 6 5 5 5 5 5 5 6 6 7 7 8 8 8 9 8 9 8 8 8 7 7 7 7 7 7 7 7 8 7 6 7 6 7 6 7
7 7 7 7 7 6 6 6 6 6 5 5 6 6 7 7 8 8 8 8 8 8 8 8 8 8 8 7 7 7 7 6 6 7 6 7 6 7 6 6 7 7
8 8 8 8 8 7 7 6 6 6 6 6 7 7 7 7 7 8 8 8 8 8 8 8 8 8 9 9 8 8 8 7 6 6 6 6 6 7 7 5 5 6
8 7 8 8 8 6 7 6 6 7 7 7 8 7 8 7 7 8 8 8 8 8 8 8 9 8 8 8 8 8 8 7 7 6 7 6 5 5 4 3 4 4
10 9 9 8 7 6 7 7 7 7 7 7 7 8 8 7 6 7 7 8 7 9 9 9 9 9 8 8 8 7 8 7 7 6 6 6 6 5 5 5 4 4
9 8 8 7 6 6 6 6 7 7 7 7 8 8 8 7 8 7 7 8 8 9 9 10 9 9 9 9 9 8 8 7 6 6 6 6 6 4 4 3 3 3
9 8 7 6 6 6 6 6 7 8 9 8 8 8 8 8 8 8 8 8 9 9 10 10 10 10 9 9 8 8 9 7 6 6 5 4 4 4 3 2 1 1
7 7 7 6 6 6 7 8 8 8 8 8 8 9 8 8 9 9 7 8 8 8 9 9 10 11 11 10 8 7 9 9 9 8 8 7 6 5 5 4 4 3
6 6 5 6 7 8 8 9 9 9 9 9 9 9 8 9 7 7 9 10 10 9 9 9 10 10 9 10 11 10 8 8 9 9 8 7 8 8 8 7 7 7
6 6 7 7 8 9 9 9 9 9 9 10 10 9 8 8 8 8 10 11 11 11 10 10 10 8 14 19 15 9 9 8 8 9 9 9 9 8 8 9 8 7
6 7 7 8 8 9 9 9 9 8 9 9 10 10 9 8 8 10 10 9 10 10 11 10 9 11 19 17 17 17 11 9 9 9 10 9 9 9 10 9 8 9
7 8 8 8 9 9 9 9 8 9 9 9 9 10 9 8 10 10 9 7 6 9 11 11 9 16 17 18 18 17 14 10 9 9 9 10 9 10 9 10 9 9
8 8 8 8 9 9 8 8 9 9 9 9 9 8 8 10 10 10 9 8 9 12 10 11 11 17 17 18 18 17 16 12 10 10 11 11 11 11 11 12 10 9
8 9 8 8 8 9 8 8 9 9 7 6 7 8 8 9 9 11 10 10 10 8 10 12 13 16 19 18 17 16 16 13 10 11 10 12 13 12 12 12 12 11
8 8 8 8 8 8 8 9 8 7 8 8 8 8 9 9 9 10 9 10 10 10 11 12 13 20 18 19 18 16 15 13 11 11 11 11 10 11 12 13 12 12
8 8 8 8 8 8 9 8 8 8 9 7 7 7 7 7 8 8 10 10 11 12 12 13 13 20 19 19 18 15 15 10 11 11 11 12 13 13 14 13 11 10
7 8 8 8 8 8 9 8 8 8 8 6 7 7 8 9 9 9 9 11 12 11 12 12 13 18 20 19 17 16 13 12 12 12 12 13 13 12 12 15 16 14
7 8 8 8 8 9 8 7 7 6 8 6 7 7 8 8 7 9 10 11 12 12 11 11 11 17 20 19 18 17 12 11 11 13 13 13 12 13 12 13 18 27
8 9 8 8 8 8 7 8 7 7 6 7 7 7 8 6 7 8 10 10 10 11 15 14 11 14 19 19 19 17 12 10 10 10 11 11 11 12 13 12 13 17
8 9 9 8 8 8 7 8 7 6 7 7 8 6 6 6 6 7 10 10 9 10 11 11 12 12 15 20 19 18 15 10 10 12 11 11 11 9 10 12 13 13
Wind_Direction
62 60 62 59 59 54 33 30 26 8 351 349 348 331 330 321 326 326 323 323 320 309 305 300 297 293 288 283 278 273 263 262 261 253 250 250 248 244 243 241 235 229
61 64 73 72 51 37 32 34 28 15 350 346 342 335 328 331 327 325 323 320 314 307 301 298 293 291 291 289 285 281 275 264 262 258 261 259 252 245 245 245 242 237
64 63 60 54 46 37 30 28 31 20 4 341 331 335 328 329 327 325 318 312 308 304 303 298 294 289 285 280 276 275 271 266 260 261 260 263 255 243 240 240 238 236
57 59 60 54 46 44 34 36 30 23 14 359 347 330 329 333 334 325 319 318 307 304 298 297 298 294 287 282 278 278 272 272 271 269 265 259 251 243 242 236 232 233
67 63 60 57 52 53 45 37 29 20 2 339 335 342 343 344 334 331 326 319 312 306 303 303 300 294 289 286 282 282 272 269 271 271 272 270 261 251 247 242 247 242
58 61 54 50 44 41 41 31 19 359 353 355 348 328 339 341 337 337 336 328 322 312 308 306 304 299 293 291 288 282 281 272 264 269 270 267 265 253 256 248 241 235
56 52 53 46 45 37 36 21 11 359 349 342 336 341 344 349 353 353 345 340 336 338 334 329 321 314 304 301 294 289 284 277 269 261 258 258 253 252 247 250 242 235
60 56 51 49 47 36 29 19 7 354 343 342 347 348 357 1 6 356 349 344 342 338 335 330 332 327 318 306 303 301 299 290 281 269 266 265 258 254 253 243 237 230
60 49 45 41 36 26 18 6 355 352 355 357 360 359 1 8 4 356 350 344 342 338 334 333 334 334 329 324 326 326 321 315 303 298 287 283 279 272 265 251 234 225
60 53 48 40 35 20 12 3 4 8 8 10 5 3 6 3 4 359 349 341 338 337 333 331 335 336 330 329 329 329 330 326 319 312 307 300 295 296 293 265 246 233
51 42 39 35 29 17 15 13 14 13 15 15 13 8 10 1 359 356 349 346 342 340 336 336 334 332 332 327 324 324 326 322 320 320 318 312 306 298 287 260 249 244
60 48 36 28 26 18 18 21 23 19 15 17 16 9 6 6 356 351 350 345 344 341 341 341 339 337 336 332 326 324 326 327 329 323 317 318 329 316 294 276 266 249
59 53 38 28 23 22 23 25 26 22 20 19 15 10 11 7 356 356 350 351 354 355 360 0 360 1 355 343 331 325 323 325 338 339 340 342 353 346 344 346 14 339
72 63 44 35 32 27 28 30 26 23 20 17 15 16 10 5 358 356 352 16 11 11 13 14 13 12 3 351 348 352 6 21 16 11 8 3 353 346 338 332 336 320
63 57 40 33 34 33 34 31 25 22 22 20 20 17 11 6 358 349 21 23 19 19 20 21 24 17 9 5 11 24 28 24 20 17 13 13 12 10 9 12 12 6
62 59 46 40 38 37 35 32 29 26 25 23 20 18 13 14 358 20 32 31 27 25 27 28 23 18 15 22 23 23 28 23 23 19 15 17 16 9 3 9 17 17
57 59 50 46 42 41 38 33 31 26 25 25 23 19 10 9 12 27 30 28 29 29 31 28 23 19 19 24 25 25 35 33 29 23 20 20 20 16 11 5 13 20
60 61 54 49 45 44 43 39 37 33 30 25 24 21 15 12 23 25 26 15 13 28 34 26 21 18 22 28 31 28 30 39 33 29 25 23 18 16 14 13 12 14
67 65 57 52 49 48 47 44 41 38 32 26 22 16 18 27 23 23 22 18 26 34 31 26 25 16 23 30 33 32 31 40 39 34 33 28 24 20 16 17 15 15
72 68 57 52 51 51 50 48 46 42 35 27 27 28 30 29 28 28 25 28 31 30 37 35 31 11 22 26 31 35 35 41 41 39 36 34 29 22 21 19 19 21
73 71 64 53 51 54 53 50 46 42 37 31 33 31 32 32 27 31 30 31 32 36 41 40 28 14 19 24 27 32 37 47 45 44 42 40 32 26 24 21 16 20
74 75 68 59 56 55 54 50 46 41 44 34 42 45 47 47 43 39 36 37 39 40 43 37 25 16 19 22 26 28 41 47 49 47 44 40 37 31 31 26 19 15
76 77 70 61 57 58 54 48 46 42 43 34 51 48 50 47 46 42 39 42 40 37 41 39 31 19 20 23 24 24 46 55 51 52 49 45 39 34 36 37 35 29
74 75 70 62 59 58 54 50 48 45 47 33 45 47 50 46 45 50 44 43 43 43 38 43 36 24 25 25 28 26 39 54 57 58 51 47 47 41 40 41 38 39
76 75 71 66 63 58 56 57 48 48 46 44 48 49 53 48 44 51 52 48 44 42 40 45 40 29 27 30 33 29 39 54 56 59 53 46 48 46 43 42 37 39
76 78 72 68 70 64 57 57 58 57 51 53 57 49 50 42 44 50 54 51 43 43 42 38 43 38 28 35 37 36 35 54 53 57 55 54 50 43 44 41 38 36